{"data":{"norad_id":63957,"epoch":"2026-09-20T00:23:18.199968Z","epoch_age_seconds":188889,"freshness":"STALE","line1":"1 63957U 25099F   26263.01618287  .00009893  00000+0  36838-3 0  9996","line2":"2 63957  43.0001 158.9715 0000159  21.4831 338.6027 15.27593315 77059","mean_motion":15.27593315,"eccentricity":1.59e-5,"inclination_deg":43.0001,"raan_deg":158.9715,"arg_perigee_deg":21.4831,"mean_anomaly_deg":338.6027,"bstar":0.00036838,"rev_number":7705,"period_min":94.265927054021,"perigee_km":482.90013420421,"apogee_km":483.11831865421,"semimajor_km":6861.1462264292,"source":"CELESTRAK","updated_at":"2026-09-21T09:00:35.174689Z"}}